, AL

(GMT )
Montgomery

Weather History for KMGM - April, 2014

Change the Weather History Date:

Monday, April 7, 2014

  Actual Average Record
Temperature  
Mean Temperature 68 °F 62 °F  
Max Temperature 80 °F 75 °F 88 °F (1948)
Min Temperature 55 °F 49 °F 31 °F (1950)
Degree Days  
Heating Degree Days 0 5  
Month to date heating degree days 6 35  
Since 1 July heating degree days 2244 2162  
Cooling Degree Days 3 2  
Month to date cooling degree days 19 10  
Year to date cooling degree days 29 39  
Growing Degree Days 18 (Base 50)    
Moisture  
Dew Point 63 °F    
Average Humidity 68    
Maximum Humidity 90    
Minimum Humidity 45    
Precipitation  
Precipitation 1.99 in 0.15 in 4.55 in (2003)
Month to date precipitation 4.45 1.12  
Year to date precipitation 17.64 17.00  
Snow  
Snow 0.00 in 0.00 in - ()
Month to date snowfall 0.0 0.0  
Since 1 July snowfall 0.5 0.4  
Snow Depth 0.00 in    
Sea Level Pressure  
Sea Level Pressure 29.71 in    
Wind  
Wind Speed 11 mph (SW)    
Max Wind Speed 24 mph    
Max Gust Speed 35 mph    
Visibility 7 miles    
Events Rain , Thunderstorm    
T = Trace of Precipitation, MM = Missing Value Source: NWS Daily Summary

Daily Weather History Graph

Daily Weather History Graph

Search for Another Location

Airport or City:

Trip Planner

Search our weather history database for the weather conditions in past years. The results will help you decide how hot, cold, wet, or windy it might be!

Date:

Astronomy

Apr. 07, 2014 Rise Set
Actual Time 6:26 AM CDT 7:09 PM CDT
Civil Twilight 6:01 AM CDT 7:34 PM CDT
Nautical Twilight 5:32 AM CDT 8:03 PM CDT
Astronomical Twilight 5:02 AM CDT 8:33 PM CDT
Moon 12:30 PM CDT (4/7) 1:37 AM CDT (4/7)
Length of Visible Light 13h 33m
Length of Day
12h 43m
First Quarter, 53% of the Moon is Illuminated
Apr 7
First Quarter
Apr 15
Full
Apr 22
Last Quarter
Apr 29
New
May 6
First Quarter

Hourly Weather History & Observations

Time (CDT) Temp. Dew Point Humidity Pressure Visibility Wind Dir Wind Speed Gust Speed Precip Events Conditions
12:53 AM 66.9 °F 64.9 °F 93% 29.73 in 6.0 mi SSE 12.7 mph 23.0 mph 0.01 in   Overcast
1:53 AM 69.1 °F 66.0 °F 90% 29.71 in 10.0 mi SSE 10.4 mph 19.6 mph 0.01 in Rain Light Rain
2:38 AM 71.6 °F 66.2 °F 83% 29.71 in 6.0 mi South 15.0 mph 23.0 mph 0.00 in Rain , Thunderstorm Light Rain
2:53 AM 71.1 °F 66.9 °F 87% 29.71 in 8.0 mi SSE 15.0 mph 24.2 mph 0.06 in Rain Light Rain
3:53 AM 71.1 °F 66.9 °F 87% 29.69 in 10.0 mi SSE 11.5 mph 18.4 mph 0.01 in Rain Light Rain
4:23 AM 71.6 °F 68.0 °F 88% 29.69 in 10.0 mi South 13.8 mph - 0.00 in Thunderstorm Overcast
4:43 AM 71.6 °F 68.0 °F 88% 29.70 in 1.8 mi South 19.6 mph - 0.09 in Rain , Thunderstorm Heavy Rain
4:49 AM 69.8 °F 66.2 °F 88% 29.72 in 0.8 mi SSW 24.2 mph 34.5 mph 0.36 in Rain , Thunderstorm Heavy Rain
4:53 AM 66.9 °F 64.0 °F 90% 29.68 in 0.8 mi SSW 12.7 mph 34.5 mph 0.65 in Rain , Thunderstorm Heavy Thunderstorms and Rain
4:59 AM 66.2 °F 62.6 °F 88% 29.70 in 1.5 mi SW 10.4 mph 25.3 mph 0.10 in Rain , Thunderstorm Thunderstorms and Rain
5:04 AM 66.2 °F 62.6 °F 88% 29.69 in 3.0 mi South 8.1 mph 20.7 mph 0.16 in Rain , Thunderstorm Heavy Thunderstorms and Rain
5:11 AM 66.2 °F 62.6 °F 88% 29.70 in 2.5 mi SW 4.6 mph - 0.20 in Rain , Thunderstorm Heavy Rain
5:24 AM 66.2 °F 62.6 °F 88% 29.71 in 2.0 mi WSW 6.9 mph - 0.29 in Rain , Thunderstorm Heavy Thunderstorms and Rain
5:28 AM 66.2 °F 62.6 °F 88% 29.72 in 1.2 mi WSW 9.2 mph - 0.35 in Rain , Thunderstorm Heavy Thunderstorms and Rain
5:36 AM 66.2 °F 64.4 °F 94% 29.73 in 1.5 mi SSW 10.4 mph 18.4 mph 0.55 in Rain , Thunderstorm Thunderstorms and Rain
5:39 AM 68.0 °F 64.4 °F 88% 29.72 in 3.0 mi Variable 6.9 mph 18.4 mph 0.56 in Rain , Thunderstorm Light Thunderstorms and Rain
5:46 AM 68.0 °F 64.4 °F 88% 29.73 in 6.0 mi West 6.9 mph - 0.58 in Rain , Thunderstorm Thunderstorms and Rain
5:53 AM 68.0 °F 64.9 °F 90% 29.72 in 5.0 mi SW 5.8 mph - 0.60 in Rain , Thunderstorm Light Thunderstorms and Rain
6:04 AM 68.0 °F 66.2 °F 94% 29.71 in 2.5 mi Calm Calm - 0.06 in Rain Heavy Rain
6:14 AM 68.0 °F 64.4 °F 88% 29.70 in 4.0 mi Variable 5.8 mph - 0.12 in Rain Rain
6:33 AM 69.8 °F 66.2 °F 88% 29.71 in 2.0 mi WSW 15.0 mph 23.0 mph 0.31 in Rain , Thunderstorm Heavy Rain
6:43 AM 69.8 °F 66.2 °F 88% 29.70 in 7.0 mi WSW 11.5 mph 20.7 mph 0.33 in Rain , Thunderstorm Light Thunderstorms and Rain
6:53 AM 69.1 °F 66.0 °F 90% 29.71 in 10.0 mi WSW 9.2 mph - 0.34 in Thunderstorm Thunderstorm
7:09 AM 69.8 °F 66.2 °F 88% 29.71 in 6.0 mi WSW 4.6 mph - 0.01 in Rain , Thunderstorm Light Rain
7:40 AM 69.8 °F 66.2 °F 88% 29.74 in 1.5 mi South 5.8 mph - 0.14 in Rain , Thunderstorm Heavy Thunderstorms and Rain
7:50 AM 69.8 °F 64.4 °F 83% 29.73 in 2.5 mi SW 10.4 mph 18.4 mph 0.25 in Rain Heavy Rain
7:53 AM 69.1 °F 64.9 °F 87% 29.73 in 3.0 mi SSW 6.9 mph 18.4 mph 0.26 in Rain , Thunderstorm Thunderstorms and Rain
8:20 AM 69.8 °F 66.2 °F 88% 29.71 in 10.0 mi South 4.6 mph - 0.06 in Rain Light Rain
8:53 AM 70.0 °F 66.9 °F 90% 29.71 in 10.0 mi SE 9.2 mph - 0.06 in   Scattered Clouds
9:53 AM 70.0 °F 66.0 °F 87% 29.70 in 10.0 mi SSE 8.1 mph - N/A   Clear
10:53 AM 70.0 °F 66.0 °F 87% 29.69 in 10.0 mi SSE 10.4 mph 18.4 mph N/A   Partly Cloudy
11:15 AM 71.6 °F 66.2 °F 83% 29.69 in 10.0 mi South 11.5 mph 17.3 mph N/A   Mostly Cloudy
11:23 AM 71.6 °F 66.2 °F 83% 29.70 in 10.0 mi South 11.5 mph - N/A   Overcast
11:53 AM 71.1 °F 66.0 °F 84% 29.70 in 10.0 mi South 8.1 mph - N/A   Overcast
12:28 PM 73.4 °F 66.2 °F 78% 29.69 in 10.0 mi South 8.1 mph - N/A   Overcast
12:53 PM 73.0 °F 66.9 °F 81% 29.68 in 10.0 mi South 11.5 mph - N/A   Overcast
1:53 PM 75.9 °F 66.9 °F 74% 29.65 in 10.0 mi SSW 6.9 mph - N/A   Mostly Cloudy
2:46 PM 78.8 °F 66.2 °F 65% 29.64 in 10.0 mi SSW 8.1 mph - N/A   Scattered Clouds
2:53 PM 78.1 °F 66.9 °F 68% 29.63 in 10.0 mi South 6.9 mph - N/A   Scattered Clouds
3:53 PM 79.0 °F 55.9 °F 45% 29.63 in 10.0 mi West 12.7 mph - N/A   Partly Cloudy
4:53 PM 75.0 °F 61.0 °F 62% 29.66 in 10.0 mi WNW 13.8 mph - N/A   Partly Cloudy
5:53 PM 70.0 °F 57.9 °F 65% 29.70 in 10.0 mi West 15.0 mph 20.7 mph N/A   Clear
6:53 PM 66.0 °F 55.0 °F 68% 29.74 in 10.0 mi West 15.0 mph 19.6 mph N/A   Clear
7:53 PM 62.1 °F 51.1 °F 67% 29.78 in 10.0 mi WNW 19.6 mph 25.3 mph N/A   Clear
8:53 PM 60.1 °F 48.9 °F 67% 29.81 in 10.0 mi NW 11.5 mph 20.7 mph N/A   Clear
9:53 PM 59.0 °F 46.9 °F 64% 29.84 in 10.0 mi NW 9.2 mph - N/A   Mostly Cloudy
10:53 PM 57.9 °F 46.9 °F 67% 29.85 in 10.0 mi NW 13.8 mph - N/A   Overcast
11:53 PM 57.0 °F 46.9 °F 69% 29.86 in 10.0 mi WNW 9.2 mph - N/A   Overcast